Regional Weather Roundup
Issued by NWS

Home | Current Version | Previous Version | Graphics & Text | Print | Product List | Glossary On
Versions: 1 2 3 4 5 6 7 8 9 10 11 12 13 14 15 16 17 18 19 20 21 22 23 24 25 26 27 28 29 30 31 32 33 34 35 36 37 38 39 40 41 42 43 44 45 46 47 48 49 50
635
ASUS43 KFSD 060310
RWRSD

WEATHER ROUNDUP FOR SOUTH DAKOTA
NATIONAL WEATHER SERVICE SIOUX FALLS SD
900 PM CST MON DEC 05 2016

NOTE: "FAIR" INDICATES FEW OR NO CLOUDS BELOW 12,000 FEET WITH NO
SIGNIFICANT WEATHER AND/OR OBSTRUCTIONS TO VISIBILITY.


SDZ001>005-009-010-012>017-060400-
NORTHWEST AND NORTH CENTRAL SOUTH DAKOTA

CITY           SKY/WX    TMP DP  RH WIND       PRES   REMARKS
BUFFALO          N/A     11   5  77 NW33      29.79R WCI -12
FAITH            N/A      9   5  84 W32G40    29.84R WCI -14
MOBRIDGE       CLOUDY    15   8  73 NW29G38   29.75R BLWGSNOWWCI  -5
$$

SDZ012>016-024>037-041>051-057-063-072>074-060400-
SOUTHWEST AND SOUTH CENTRAL SOUTH DAKOTA

CITY           SKY/WX    TMP DP  RH WIND       PRES   REMARKS
RAPID CTY ARPT CLEAR     16   9  74 N14       29.86R WCI   2
PIERRE         PTCLDY    19  11  70 W37G48    29.83R BLWGSNOWWCI  -2
CUSTER         PTCLDY    12   3  67 W13G28    29.74S WCI  -3
ELLSWORTH AFB  CLEAR     17   8  69 N16G26    29.84R WCI   2
PHILIP         CLEAR     18   9  68 NW21G26   29.90R WCI   1
PINE RIDGE     CLEAR     14  10  84 W8        29.89R WCI   3
SPEARFISH      FLURRIES  14   5  67 W20G30    29.87S WCI  -3
WINNER         MOCLDY    25  15  66 NW25      29.85R WCI   9
$$

SDZ004>011-016>023-039-040-060400-
NORTHEAST SOUTH DAKOTA

CITY           SKY/WX    TMP DP  RH WIND       PRES   REMARKS
ABERDEEN       CLOUDY    22  15  75 W29G40    29.66R WCI   4
WATERTOWN      CLOUDY    25  20  81 W21G38    29.61R WCI  11
BROOKINGS      CLOUDY    27  22  81 W29G36    29.66R WCI  11
SISSETON         N/A     29  24  82 NW30G38   29.53R WCI  13
$$

SDZ017-020-022-023-036>040-048>070-060400-
SOUTHEAST SOUTH DAKOTA

CITY           SKY/WX    TMP DP  RH WIND       PRES   REMARKS
SIOUX FALLS    CLOUDY    30  25  81 W18G28    29.74R WCI  18
HURON          CLOUDY    24  17  74 W25G31    29.77R WCI   8
CHAMBERLAIN    CLEAR     24  16  71 NW24G35   29.86R WCI   8
MITCHELL       CLOUDY    27  21  78 NW20G26   29.81R WCI  13
YANKTON        CLOUDY   N/A N/A N/A W25G35    29.81R
$$

ABBREVIATIONS USED IN REMARKS
   TC - TEMPERATURE IN CELSIUS
  WCI - WIND CHILL INDEX
   HX - HEAT INDEX
  VSB - VISIBILITY





USA.gov is the U.S. government's official web portal to all federal, state and local government web resources and services.